Weather History for Eindhoven, Netherlands

Change the Weather History Date:

Friday, September 20, 2013

  Actual Average Record
Temperature  
Mean Temperature 56 °F -  
Max Temperature 62 °F 60 °F 86 °F (2003)
Min Temperature 49 °F 45 °F 37 °F (2008)
Degree Days  
Heating Degree Days 10    
Growing Degree Days 6 (Base 50)    
Moisture  
Dew Point 53 °F    
Average Humidity 87    
Maximum Humidity 100    
Minimum Humidity 59    
Precipitation  
Precipitation 0.00 in - - ()
Sea Level Pressure  
Sea Level Pressure 29.92 in    
Wind  
Wind Speed 9 mph ()    
Max Wind Speed 14 mph    
Max Gust Speed -    
Visibility 5.5 miles    
Events Rain    
Averages and records for this station are not official NWS values.
T = Trace of Precipitation, MM = Missing Value Source: Averaged Metar Reports

Daily Weather History Graph

Daily Weather History Graph

Search for Another Location

Airport:

Trip Planner

Search our weather history database for the weather conditions in past years. The results will help you decide how hot, cold, wet, or windy it might be!

Date:

Astronomy

Sep. 20, 2013 Rise Set
Actual Time 7:21 AM CEST 7:41 PM CEST
Civil Twilight 6:48 AM CEST 8:14 PM CEST
Nautical Twilight 6:08 AM CEST 8:54 PM CEST
Astronomical Twilight 5:26 AM CEST 9:35 PM CEST
Moon 7:50 PM CEST (9/20) 8:30 AM CEST (9/20)
Length of Visible Light 13h 26m
Length of Day
12h 19m
Full, 99% of the Moon is Illuminated
Sep 20
Full
Sep 27
Last Quarter
Oct 5
New
Oct 12
First Quarter
Oct 19
Full

Hourly Weather History & Observations

Time (CEST) Temp. Dew Point Humidity Pressure Visibility Wind Dir Wind Speed Gust Speed Precip Events Conditions
12:03 AM 53.6 °F 51.8 °F 94% 29.80 in - SSW 13.8 mph - N/A   Overcast
12:07 AM 53.6 °F 51.8 °F 94% 29.80 in 3.7 mi SSW 13.8 mph - N/A   Overcast
12:08 AM 53.6 °F 51.8 °F 94% 29.80 in 4.3 mi SSW 13.8 mph - N/A Rain Light Rain
12:25 AM 53.6 °F 51.8 °F 94% 29.80 in 5.0 mi SSW 13.8 mph - N/A   Mostly Cloudy
12:29 AM 53.6 °F 51.8 °F 94% 29.80 in 4.3 mi SSW 13.8 mph - N/A   Mostly Cloudy
12:41 AM 53.6 °F 51.8 °F 94% 29.80 in 6.2 mi SW 12.7 mph - N/A   Overcast
12:45 AM 53.6 °F 53.6 °F 100% 29.80 in 6.2 mi SW 12.7 mph - N/A   Overcast
12:55 AM 55.4 °F 53.6 °F 94% 29.80 in 6.2 mi WSW 10.4 mph - N/A Rain Light Rain
12:56 AM 55.4 °F 53.6 °F 94% 29.80 in 3.7 mi SW 11.5 mph - N/A Rain Light Rain
1:06 AM 55.4 °F 53.6 °F 94% 29.80 in 6.2 mi SW 11.5 mph - N/A Rain Drizzle
1:15 AM 55.4 °F 53.6 °F 94% 29.80 in 6.2 mi SW 10.4 mph - N/A Rain Light Rain
1:19 AM 55.4 °F 53.6 °F 94% 29.80 in 6.2 mi SW 10.4 mph - N/A Rain Light Drizzle
1:25 AM 55.4 °F 53.6 °F 94% 29.80 in 6.2 mi SW 9.2 mph - N/A   Overcast
1:40 AM 55.4 °F 53.6 °F 94% 29.80 in 5.6 mi SW 10.4 mph - N/A   Mostly Cloudy
1:44 AM 55.4 °F 53.6 °F 94% 29.80 in 4.3 mi SW 9.2 mph - N/A   Overcast
1:55 AM 53.6 °F 53.6 °F 100% 29.80 in 4.3 mi SW 9.2 mph - N/A   Mostly Cloudy
2:00 AM 54 °F 53 °F 95% 29.82 in 4 mi SW 8.9 mph - - Rain Rain
2:15 AM 53.6 °F 53.6 °F 100% 29.80 in 5.0 mi SW 10.4 mph - N/A   Mostly Cloudy
2:20 AM 53.6 °F 53.6 °F 100% 29.80 in 4.3 mi SW 10.4 mph - N/A   Mostly Cloudy
2:25 AM 53.6 °F 53.6 °F 100% 29.80 in 3.7 mi SW 10.4 mph - N/A   Mostly Cloudy
2:43 AM 55.4 °F 53.6 °F 94% 29.80 in 3.7 mi SW 9.2 mph - N/A   Overcast
2:47 AM 55.4 °F 53.6 °F 94% 29.80 in 3.7 mi SW 9.2 mph - N/A   Overcast
2:55 AM 55.4 °F 53.6 °F 94% 29.80 in 3.1 mi SW 9.2 mph - N/A   Overcast
3:08 AM 55.4 °F 53.6 °F 94% 29.80 in 3.7 mi SW 9.2 mph - N/A   Overcast
3:25 AM 55.4 °F 53.6 °F 94% 29.83 in 3.7 mi SW 10.4 mph - N/A   Overcast
3:55 AM 55.4 °F 53.6 °F 94% 29.83 in 3.1 mi SW 10.4 mph - N/A   Overcast
4:09 AM 55.4 °F 53.6 °F 94% 29.83 in 3.1 mi SW 9.2 mph - N/A   Overcast
4:17 AM 55.4 °F 53.6 °F 94% 29.83 in - SW 9.2 mph - N/A   Overcast
4:25 AM 55.4 °F 53.6 °F 94% 29.83 in 3.1 mi SW 9.2 mph - N/A   Mostly Cloudy
4:55 AM 55.4 °F 53.6 °F 94% 29.83 in - WSW 8.1 mph - N/A   Mostly Cloudy
5:00 AM 55.4 °F 53.6 °F 94% 29.83 in 3.1 mi WSW 8.1 mph - N/A   Mostly Cloudy
5:03 AM 55.4 °F 53.6 °F 94% 29.83 in - SW 6.9 mph - N/A   Scattered Clouds
5:12 AM 55.4 °F 53.6 °F 94% 29.83 in 3.1 mi WSW 8.1 mph - N/A   Mostly Cloudy
5:25 AM 55.4 °F 53.6 °F 94% 29.83 in 3.1 mi WSW 6.9 mph - N/A   Scattered Clouds
5:30 AM 55.4 °F 53.6 °F 94% 29.86 in - WSW 6.9 mph - N/A   Scattered Clouds
5:34 AM 55.4 °F 53.6 °F 94% 29.86 in 3.1 mi WSW 6.9 mph - N/A   Mostly Cloudy
5:37 AM 55.4 °F 53.6 °F 94% 29.86 in - WSW 5.8 mph - N/A   Overcast
5:42 AM 53.6 °F 53.6 °F 100% 29.86 in 3.1 mi WSW 5.8 mph - N/A   Mostly Cloudy
5:46 AM 53.6 °F 53.6 °F 100% 29.86 in - WSW 6.9 mph - N/A   Mostly Cloudy
5:55 AM 53.6 °F 51.8 °F 94% 29.86 in - SW 5.8 mph - N/A   Mostly Cloudy
6:03 AM 53.6 °F 53.6 °F 100% 29.86 in 3.1 mi SW 5.8 mph - N/A   Mostly Cloudy
6:06 AM 53.6 °F 53.6 °F 100% 29.86 in 5.0 mi WSW 5.8 mph - N/A   Overcast
6:09 AM 55.4 °F 53.6 °F 94% 29.86 in 3.7 mi WSW 5.8 mph - N/A   Overcast
6:19 AM 55.4 °F 53.6 °F 94% 29.86 in 5.0 mi WSW 6.9 mph - N/A   Overcast
6:20 AM 55.4 °F 53.6 °F 94% 29.86 in 4.3 mi WSW 6.9 mph - N/A   Mostly Cloudy
6:25 AM 55.4 °F 53.6 °F 94% 29.86 in 4.3 mi WSW 6.9 mph - N/A   Mostly Cloudy
6:28 AM 55.4 °F 53.6 °F 94% 29.86 in 5.6 mi West 5.8 mph - N/A Rain Light Rain
6:33 AM 55.4 °F 53.6 °F 94% 29.86 in 4.3 mi West 5.8 mph - N/A   Drizzle
6:46 AM 55.4 °F 53.6 °F 94% 29.86 in 4.3 mi WSW 5.8 mph - N/A   Mostly Cloudy
6:50 AM 55.4 °F 53.6 °F 94% 29.86 in 5.0 mi WSW 5.8 mph - N/A   Mostly Cloudy
6:55 AM 55.4 °F 53.6 °F 94% 29.86 in 5.0 mi WSW 5.8 mph - N/A   Overcast
7:09 AM 55.4 °F 51.8 °F 88% 29.86 in 5.6 mi WSW 6.9 mph - N/A   Overcast
7:25 AM 55.4 °F 51.8 °F 88% 29.89 in 6.2 mi WSW 8.1 mph - N/A   Overcast
7:55 AM 55.4 °F 51.8 °F 88% 29.89 in 6.2 mi WSW 6.9 mph - N/A   Overcast
8:00 AM 55 °F 53 °F 88% 29.91 in 8 mi WSW 6.7 mph - -   Partly Cloudy
8:25 AM 55.4 °F 51.8 °F 88% 29.89 in 6.2 mi WSW 6.9 mph - N/A   Overcast
8:54 AM 57.2 °F 53.6 °F 88% 29.92 in 6.2 mi WSW 6.9 mph - N/A   Mostly Cloudy
8:55 AM 57.2 °F 53.6 °F 88% 29.92 in 6.2 mi WSW 6.9 mph - N/A   Mostly Cloudy
9:11 AM 57.2 °F 53.6 °F 88% 29.92 in 6.2 mi WSW 5.8 mph - N/A   Overcast
9:25 AM 57.2 °F 53.6 °F 88% 29.92 in 6.2 mi WSW 5.8 mph - N/A   Overcast
9:55 AM 59.0 °F 53.6 °F 82% 29.92 in 6.2 mi WSW 9.2 mph - N/A   Overcast
10:25 AM 59.0 °F 53.6 °F 82% 29.95 in 6.2 mi West 8.1 mph - N/A   Overcast
10:55 AM 60.8 °F 53.6 °F 77% 29.95 in 6.2 mi West 10.4 mph - N/A   Overcast
11:00 AM 60 °F 53 °F 70% 29.97 in 16 mi West 11.2 mph - -   Overcast
11:25 AM 59.0 °F 51.8 °F 77% 29.95 in 6.2 mi West 10.4 mph - N/A   Mostly Cloudy
11:55 AM 60.8 °F 51.8 °F 72% 29.98 in 6.2 mi West 11.5 mph - N/A   Overcast
12:11 PM 60.8 °F 53.6 °F 77% 29.98 in 6.2 mi West 11.5 mph - N/A   Overcast
12:14 PM 60.8 °F 53.6 °F 77% 29.98 in 6.2 mi West 12.7 mph - N/A   Mostly Cloudy
12:18 PM 60.8 °F 53.6 °F 77% 29.98 in 6.2 mi West 12.7 mph - N/A   Mostly Cloudy
12:21 PM 60.8 °F 53.6 °F 77% 29.98 in 6.2 mi West 12.7 mph - N/A   Overcast
12:25 PM 60.8 °F 53.6 °F 77% 29.98 in 6.2 mi West 12.7 mph - N/A   Overcast
12:55 PM 60.8 °F 51.8 °F 72% 29.98 in 6.2 mi West 12.7 mph - N/A   Overcast
1:25 PM 60.8 °F 51.8 °F 72% 30.01 in 6.2 mi West 12.7 mph - N/A   Mostly Cloudy
1:55 PM 62.6 °F 51.8 °F 68% 30.01 in 6.2 mi West 12.7 mph - N/A   Overcast
2:00 PM 62 °F 51 °F 59% 30.02 in 22 mi West 13.4 mph - -   Partly Cloudy
2:25 PM 60.8 °F 51.8 °F 72% 30.01 in 6.2 mi West 11.5 mph - N/A   Overcast
2:55 PM 60.8 °F 51.8 °F 72% 30.04 in 6.2 mi West 11.5 mph - N/A   Overcast
3:25 PM 60.8 °F 51.8 °F 72% 30.04 in 6.2 mi West 10.4 mph - N/A   Overcast
3:55 PM 60.8 °F 51.8 °F 72% 30.04 in 6.2 mi West 9.2 mph - N/A   Mostly Cloudy
4:25 PM 62.6 °F 51.8 °F 68% 30.04 in 6.2 mi WNW 11.5 mph - N/A   Mostly Cloudy
4:55 PM 62.6 °F 51.8 °F 68% 30.06 in 6.2 mi WNW 11.5 mph - N/A   Mostly Cloudy
5:00 PM 62 °F 51 °F 59% 30.07 in 22 mi WNW 11.2 mph - -   Overcast
5:25 PM 62.6 °F 51.8 °F 68% 30.06 in 6.2 mi WNW 8.1 mph - N/A   Overcast
5:55 PM 60.8 °F 51.8 °F 72% 30.06 in 6.2 mi West 9.2 mph - N/A   Overcast
6:25 PM 60.8 °F 51.8 °F 72% 30.09 in 6.2 mi WNW 9.2 mph - N/A   Overcast
6:55 PM 59.0 °F 51.8 °F 77% 30.09 in 6.2 mi WNW 8.1 mph - N/A   Overcast
7:25 PM 59.0 °F 50.0 °F 72% 30.12 in 6.2 mi WNW 8.1 mph - N/A   Overcast
7:55 PM 57.2 °F 50.0 °F 77% 30.12 in 6.2 mi WNW 4.6 mph - N/A   Overcast
8:00 PM 58 °F 51 °F 69% 30.14 in 28 mi WNW 4.5 mph - -   Partly Cloudy
8:25 PM 57.2 °F 50.0 °F 77% 30.12 in 6.2 mi West 4.6 mph - N/A   Mostly Cloudy
8:55 PM 55.4 °F 50.0 °F 82% 30.15 in 6.2 mi WSW 2.3 mph - N/A   Overcast
9:25 PM 55.4 °F 50.0 °F 82% 30.15 in 6.2 mi West 2.3 mph - N/A   Overcast
9:55 PM 51.8 °F 50.0 °F 94% 30.15 in 6.2 mi SW 2.3 mph - N/A   Partly Cloudy
10:25 PM 50.0 °F 48.2 °F 94% 30.15 in 6.2 mi SW 3.5 mph - N/A   Mostly Cloudy
10:55 PM 50.0 °F 48.2 °F 94% 30.18 in 6.2 mi WSW 3.5 mph - N/A   Overcast
11:00 PM 49 °F 48 °F 95% 30.19 in 11 mi WSW 4.5 mph - -   Overcast
11:25 PM 50.0 °F 48.2 °F 94% 30.18 in 6.2 mi WSW 4.6 mph - N/A   Overcast
11:55 PM 50.0 °F 48.2 °F 94% 30.18 in 6.2 mi WSW 3.5 mph - N/A   Partly Cloudy